This is the latest recevied weather packets stored in our database for station/object KN4DS-3. If no packets are shown the sender has not sent any weather packets the latest 10 day(s).
| Time | Temp. | Humidity | Pressure | Rain* | Wind** | Luminosity | Snow |
|---|---|---|---|---|---|---|---|
| 1777458304 | 16.67° C | 97% | 1017.7 hPa | 9.65 mm | - | - | - |
| 1777458005 | 16.67° C | 97% | 1017.7 hPa | 10.92 mm | - | - | - |
| 1777457704 | 16.67° C | 97% | 1018.1 hPa | 11.94 mm | - | - | - |
| 1777457404 | 16.67° C | 97% | 1018.4 hPa | 12.45 mm | - | - | - |
| 1777457104 | 16.67° C | 97% | 1018.5 hPa | 12.95 mm | - | - | - |
| 1777456804 | 16.67° C | 97% | 1018.7 hPa | 13.21 mm | - | - | - |
| 1777456504 | 16.67° C | 97% | 1018.7 hPa | 13.72 mm | - | - | - |
| 1777456205 | 16.67° C | 97% | 1018.9 hPa | 14.73 mm | - | - | - |
| 1777455904 | 16.67° C | 97% | 1018.7 hPa | 16 mm | - | - | - |
| 1777455605 | 16.67° C | 97% | 1018.9 hPa | 16 mm | - | - | - |
| 1777455305 | 16.67° C | 97% | 1018.9 hPa | 15.49 mm | - | - | - |
| 1777455005 | 16.67° C | 97% | 1019 hPa | 13.72 mm | - | - | - |
| 1777454704 | 16.67° C | 97% | 1019.2 hPa | 10.41 mm | - | - | - |
| 1777454405 | 16.67° C | 97% | 1019.1 hPa | 8.89 mm | - | - | - |
| 1777454105 | 16.67° C | 97% | 1019.1 hPa | 7.37 mm | - | - | - |
| 1777453805 | 16.67° C | 97% | 1019.1 hPa | 6.6 mm | - | - | - |
| 1777453504 | 16.67° C | 97% | 1019.1 hPa | 5.84 mm | - | - | - |
| 1777453204 | 16.67° C | 97% | 1019.2 hPa | 5.08 mm | - | - | - |
| 1777452904 | 16.67° C | 97% | 1019.2 hPa | 4.06 mm | - | - | - |
| 1777452605 | 16.67° C | 97% | 1019.1 hPa | 2.79 mm | - | - | - |
| 1777452304 | 16.67° C | 97% | 1018.8 hPa | 1.02 mm | - | - | - |
| 1777452004 | 16.67° C | 97% | 1018.1 hPa | 0.51 mm | - | - | - |
| 1777451704 | 16.67° C | 97% | 1017.6 hPa | 0.25 mm | - | - | - |
| 1777451405 | 16.67° C | 97% | 1017.1 hPa | 0 mm | - | - | - |
| 1777451104 | 16.67° C | 97% | 1017.1 hPa | 0 mm | - | - | - |
* Rain latest hour (hover to see other rain measurements)
** Current wind speed in m/s (hover to see current wind gust speed)